| time (UTC) | temp F | wind direction | speed MPH | gust MPH | rain 1hr in | rain 24hr in | rain mn in | humidity % | barometer mb |
| 20260507221503 | 55 | 359 | 2.0 | 6.0 | 0.00 | 0.10 | 0.10 | 87 | 1010.4 |
| 20260507221004 | 55 | 341 | 1.0 | 3.0 | 0.00 | 0.10 | 0.10 | 88 | 1010.4 |
| 20260507220504 | 54 | 349 | 1.0 | 5.0 | 0.00 | 0.10 | 0.10 | 88 | 1010.5 |
| 20260507220004 | 54 | 340 | 1.0 | 5.0 | 0.00 | 0.10 | 0.10 | 87 | 1010.6 |
| 20260507214503 | 54 | 30 | 1.0 | 2.0 | 0.01 | 0.10 | 0.10 | 89 | 1010.3 |
| 20260507214004 | 54 | 101 | 1.0 | 2.0 | 0.01 | 0.10 | 0.10 | 88 | 1010.0 |
| 20260507213004 | 54 | 49 | 1.0 | 3.0 | 0.01 | 0.10 | 0.10 | 86 | 1010.2 |
| 20260507212503 | 54 | 14 | 1.0 | 4.0 | 0.02 | 0.10 | 0.10 | 87 | 1010.3 |
| 20260507212004 | 54 | 344 | 1.0 | 4.0 | 0.02 | 0.10 | 0.10 | 87 | 1010.6 |
| 20260507211503 | 54 | 331 | 1.0 | 2.0 | 0.02 | 0.10 | 0.10 | 89 | 1011.0 |
| 20260507210504 | 54 | 334 | 1.0 | 2.0 | 0.02 | 0.10 | 0.10 | 88 | 1010.5 |
| 20260507205504 | 54 | 15 | 0.0 | 2.0 | 0.02 | 0.09 | 0.09 | 87 | 1009.9 |
| 20260507205003 | 54 | 342 | 0.0 | 2.0 | 0.03 | 0.09 | 0.09 | 86 | 1010.3 |
| 20260507204503 | 55 | 342 | 0.0 | 2.0 | 0.03 | 0.09 | 0.09 | 86 | 1010.3 |
| 20260507204003 | 55 | 331 | 0.0 | 2.0 | 0.03 | 0.09 | 0.09 | 86 | 1010.3 |
| 20260507203504 | 55 | 317 | 0.0 | 2.0 | 0.03 | 0.09 | 0.09 | 86 | 1010.5 |
| 20260507203003 | 55 | 324 | 0.0 | 1.0 | 0.03 | 0.09 | 0.09 | 85 | 1010.3 |
| 20260507202503 | 55 | 352 | 0.0 | 2.0 | 0.02 | 0.08 | 0.08 | 85 | 1010.3 |
| 20260507202003 | 55 | 25 | 0.0 | 2.0 | 0.03 | 0.08 | 0.08 | 85 | 1010.1 |
| 20260507201504 | 55 | 340 | 1.0 | 2.0 | 0.03 | 0.08 | 0.08 | 85 | 1010.5 |
| 20260507201003 | 55 | 311 | 0.0 | 2.0 | 0.04 | 0.08 | 0.08 | 86 | 1010.5 |
| 20260507200504 | 55 | 310 | 0.0 | 2.0 | 0.04 | 0.08 | 0.08 | 84 | 1010.4 |
| 20260507200003 | 55 | 22 | 1.0 | 3.0 | 0.04 | 0.07 | 0.07 | 83 | 1010.2 |
| 20260507195504 | 55 | 19 | 1.0 | 3.0 | 0.04 | 0.07 | 0.07 | 80 | 1010.1 |
| 20260507195003 | 56 | 12 | 0.0 | 2.0 | 0.03 | 0.06 | 0.06 | 81 | 1010.2 |
| 20260507194004 | 56 | 22 | 0.0 | 2.0 | 0.03 | 0.06 | 0.06 | 80 | 1010.3 |
| 20260507193504 | 56 | 61 | 0.0 | 2.0 | 0.03 | 0.06 | 0.06 | 78 | 1010.3 |
| 20260507193004 | 56 | 82 | 0.0 | 2.0 | 0.03 | 0.06 | 0.06 | 82 | 1010.4 |
| 20260507192504 | 57 | 96 | 0.0 | 2.0 | 0.03 | 0.06 | 0.06 | 80 | 1010.3 |
| 20260507192004 | 57 | 95 | 1.0 | 2.0 | 0.02 | 0.05 | 0.05 | 80 | 1010.4 |
| 20260507191503 | 57 | 81 | 1.0 | 2.0 | 0.02 | 0.05 | 0.05 | 78 | 1010.4 |
| 20260507191004 | 57 | 25 | 1.0 | 4.0 | 0.01 | 0.04 | 0.04 | 73 | 1010.5 |
| 20260507185503 | 57 | 2 | 2.0 | 7.0 | 0.00 | 0.03 | 0.03 | 71 | 1010.7 |
| 20260507185004 | 57 | 4 | 3.0 | 7.0 | 0.00 | 0.03 | 0.03 | 70 | 1010.5 |
| 20260507184004 | 57 | 6 | 2.0 | 5.0 | 0.00 | 0.03 | 0.03 | 73 | 1010.8 |
| 20260507183003 | 58 | 21 | 1.0 | 3.0 | 0.00 | 0.03 | 0.03 | 69 | 1011.2 |
| 20260507181503 | 59 | 9 | 2.0 | 5.0 | 0.00 | 0.03 | 0.03 | 66 | 1011.5 |
| 20260507181003 | 59 | 13 | 2.0 | 6.0 | 0.00 | 0.03 | 0.03 | 63 | 1011.3 |
| 20260507180503 | 59 | 11 | 2.0 | 8.0 | 0.00 | 0.03 | 0.03 | 58 | 1011.4 |
| 20260507180005 | 60 | 359 | 2.0 | 8.0 | 0.00 | 0.03 | 0.03 | 58 | 1011.4 |
| 20260507175503 | 60 | 1 | 3.0 | 9.0 | 0.00 | 0.03 | 0.03 | 56 | 1011.3 |
| 20260507175003 | 60 | 7 | 3.0 | 9.0 | 0.00 | 0.03 | 0.03 | 56 | 1011.2 |
| 20260507174003 | 60 | 37 | 1.0 | 4.0 | 0.00 | 0.03 | 0.03 | 56 | 1011.1 |
| 20260507173503 | 60 | 18 | 2.0 | 6.0 | 0.00 | 0.03 | 0.03 | 56 | 1011.2 |
| 20260507173004 | 60 | 25 | 2.0 | 6.0 | 0.00 | 0.03 | 0.03 | 55 | 1011.1 |
| 20260507172504 | 60 | 33 | 2.0 | 7.0 | 0.00 | 0.03 | 0.03 | 58 | 1011.2 |
| 20260507172004 | 60 | 31 | 2.0 | 7.0 | 0.00 | 0.03 | 0.03 | 56 | 1011.3 |
| 20260507171503 | 60 | 20 | 2.0 | 7.0 | 0.00 | 0.03 | 0.03 | 57 | 1011.4 |
| 20260507171003 | 60 | 22 | 2.0 | 7.0 | 0.00 | 0.03 | 0.03 | 56 | 1011.3 |
| 20260507170003 | 60 | 13 | 2.0 | 7.0 | 0.00 | 0.03 | 0.03 | 58 | 1011.5 |
| 20260507165504 | 60 | 4 | 3.0 | 7.0 | 0.00 | 0.03 | 0.03 | 57 | 1011.6 |
| 20260507165003 | 60 | 8 | 2.0 | 7.0 | 0.00 | 0.04 | 0.03 | 59 | 1011.7 |
| 20260507164504 | 60 | 16 | 2.0 | 7.0 | 0.00 | 0.04 | 0.03 | 60 | 1011.8 |
| 20260507164003 | 59 | 7 | 2.0 | 6.0 | 0.00 | 0.04 | 0.03 | 60 | 1011.6 |
| 20260507163503 | 59 | 1 | 3.0 | 9.0 | 0.00 | 0.04 | 0.03 | 61 | 1012.0 |
| 20260507163004 | 59 | 1 | 4.0 | 9.0 | 0.00 | 0.04 | 0.03 | 58 | 1012.0 |
| 20260507162004 | 59 | 18 | 2.0 | 5.0 | 0.00 | 0.04 | 0.03 | 62 | 1012.3 |
| 20260507161503 | 59 | 15 | 3.0 | 8.0 | 0.00 | 0.04 | 0.03 | 63 | 1012.3 |
| 20260507161003 | 59 | 18 | 3.0 | 9.0 | 0.00 | 0.04 | 0.03 | 63 | 1012.1 |
| 20260507160503 | 59 | 14 | 4.0 | 9.0 | 0.00 | 0.05 | 0.03 | 64 | 1012.1 |
| 20260507160003 | 59 | 8 | 4.0 | 9.0 | 0.00 | 0.05 | 0.03 | 63 | 1012.4 |
| 20260507155503 | 59 | 10 | 3.0 | 9.0 | 0.00 | 0.05 | 0.03 | 63 | 1012.4 |
| 20260507155003 | 59 | 7 | 3.0 | 9.0 | 0.00 | 0.05 | 0.03 | 64 | 1012.3 |
| 20260507154504 | 59 | 3 | 3.0 | 9.0 | 0.00 | 0.05 | 0.03 | 66 | 1012.5 |
| 20260507153504 | 59 | 5 | 3.0 | 7.0 | 0.00 | 0.05 | 0.03 | 66 | 1012.6 |
| 20260507153003 | 59 | 12 | 3.0 | 7.0 | 0.00 | 0.05 | 0.03 | 67 | 1012.6 |
| 20260507152503 | 59 | 9 | 3.0 | 7.0 | 0.00 | 0.05 | 0.03 | 66 | 1012.8 |
| 20260507152003 | 59 | 2 | 3.0 | 9.0 | 0.00 | 0.05 | 0.03 | 68 | 1012.7 |
| 20260507151504 | 58 | 3 | 4.0 | 9.0 | 0.00 | 0.05 | 0.03 | 68 | 1012.7 |
| 20260507151003 | 58 | 6 | 4.0 | 10.0 | 0.00 | 0.05 | 0.03 | 67 | 1012.7 |
| 20260507150503 | 58 | 9 | 3.0 | 10.0 | 0.00 | 0.05 | 0.03 | 66 | 1012.7 |
| 20260507150004 | 58 | 14 | 4.0 | 10.0 | 0.00 | 0.05 | 0.03 | 65 | 1012.9 |
| 20260507145503 | 58 | 13 | 5.0 | 13.0 | 0.00 | 0.05 | 0.03 | 65 | 1012.9 |
| 20260507145003 | 58 | 14 | 5.0 | 13.0 | 0.00 | 0.05 | 0.03 | 65 | 1012.9 |
| 20260507144004 | 58 | 15 | 4.0 | 12.0 | 0.00 | 0.05 | 0.03 | 67 | 1012.9 |
| 20260507143503 | 58 | 8 | 4.0 | 11.0 | 0.00 | 0.05 | 0.03 | 70 | 1012.9 |
| 20260507143003 | 58 | 8 | 4.0 | 11.0 | 0.00 | 0.05 | 0.03 | 69 | 1013.0 |
| 20260507142504 | 58 | 11 | 5.0 | 11.0 | 0.00 | 0.05 | 0.03 | 71 | 1013.0 |
| 20260507142003 | 58 | 6 | 6.0 | 12.0 | 0.00 | 0.05 | 0.03 | 70 | 1012.8 |
| 20260507141503 | 58 | 3 | 5.0 | 12.0 | 0.00 | 0.05 | 0.03 | 71 | 1012.8 |
| 20260507140503 | 57 | 8 | 4.0 | 11.0 | 0.00 | 0.05 | 0.03 | 74 | 1012.9 |
| 20260507140004 | 57 | 3 | 5.0 | 11.0 | 0.00 | 0.05 | 0.03 | 73 | 1013.1 |
| 20260507135503 | 57 | 4 | 4.0 | 13.0 | 0.00 | 0.05 | 0.03 | 74 | 1013.1 |
| 20260507135003 | 57 | 5 | 4.0 | 13.0 | 0.00 | 0.05 | 0.03 | 73 | 1013.0 |
| 20260507134504 | 57 | 4 | 4.0 | 10.0 | 0.00 | 0.05 | 0.03 | 75 | 1013.1 |
| 20260507134003 | 57 | 4 | 3.0 | 10.0 | 0.00 | 0.05 | 0.03 | 75 | 1013.0 |
| 20260507133503 | 57 | 6 | 3.0 | 8.0 | 0.00 | 0.05 | 0.03 | 77 | 1013.2 |
| 20260507133003 | 57 | 6 | 3.0 | 8.0 | 0.00 | 0.05 | 0.03 | 79 | 1012.9 |
| 20260507132503 | 56 | 3 | 3.0 | 9.0 | 0.00 | 0.05 | 0.03 | 79 | 1012.7 |
| 20260507132004 | 56 | 2 | 2.0 | 9.0 | 0.00 | 0.05 | 0.03 | 79 | 1012.9 |
| 20260507131503 | 56 | 5 | 2.0 | 6.0 | 0.00 | 0.05 | 0.03 | 79 | 1012.8 |
| 20260507131003 | 56 | 3 | 3.0 | 6.0 | 0.00 | 0.05 | 0.03 | 80 | 1012.9 |
| 20260507130503 | 56 | 6 | 3.0 | 7.0 | 0.00 | 0.05 | 0.03 | 79 | 1012.8 |
| 20260507130004 | 56 | 7 | 3.0 | 7.0 | 0.00 | 0.05 | 0.03 | 79 | 1012.7 |
| 20260507125503 | 56 | 4 | 3.0 | 7.0 | 0.00 | 0.05 | 0.03 | 79 | 1012.5 |
| 20260507125004 | 56 | 7 | 2.0 | 6.0 | 0.00 | 0.05 | 0.03 | 79 | 1012.8 |
| 20260507124005 | 56 | 3 | 3.0 | 7.0 | 0.00 | 0.05 | 0.03 | 79 | 1012.9 |
| 20260507123503 | 56 | 2 | 3.0 | 7.0 | 0.00 | 0.05 | 0.03 | 79 | 1012.9 |
| 20260507123004 | 56 | 359 | 3.0 | 7.0 | 0.00 | 0.05 | 0.03 | 79 | 1013.0 |
| 20260507122503 | 56 | 2 | 3.0 | 7.0 | 0.00 | 0.05 | 0.03 | 80 | 1012.9 |
| 20260507122003 | 55 | 11 | 2.0 | 7.0 | 0.00 | 0.05 | 0.03 | 79 | 1012.9 |
| 20260507121504 | 55 | 31 | 1.0 | 4.0 | 0.00 | 0.05 | 0.03 | 80 | 1012.7 |
| 20260507121003 | 55 | 16 | 2.0 | 7.0 | 0.00 | 0.05 | 0.03 | 80 | 1012.8 |
| 20260507120503 | 55 | 18 | 2.0 | 7.0 | 0.00 | 0.05 | 0.03 | 79 | 1012.7 |
| 20260507115503 | 55 | 14 | 1.0 | 5.0 | 0.00 | 0.05 | 0.03 | 80 | 1012.9 |
| 20260507115003 | 55 | 16 | 2.0 | 6.0 | 0.00 | 0.05 | 0.03 | 79 | 1012.8 |
| 20260507114504 | 55 | 14 | 2.0 | 6.0 | 0.00 | 0.05 | 0.03 | 78 | 1012.8 |
| 20260507114003 | 55 | 15 | 2.0 | 8.0 | 0.00 | 0.05 | 0.03 | 78 | 1013.0 |
| 20260507113004 | 55 | 8 | 3.0 | 7.0 | 0.00 | 0.05 | 0.03 | 77 | 1013.0 |
| 20260507112503 | 55 | 7 | 3.0 | 7.0 | 0.00 | 0.05 | 0.03 | 76 | 1012.9 |
| 20260507112004 | 55 | 8 | 3.0 | 10.0 | 0.00 | 0.05 | 0.03 | 76 | 1012.8 |
| 20260507111504 | 55 | 3 | 4.0 | 13.0 | 0.00 | 0.05 | 0.03 | 79 | 1012.4 |
| 20260507111003 | 55 | 2 | 4.0 | 13.0 | 0.00 | 0.05 | 0.03 | 82 | 1012.6 |
| 20260507110503 | 55 | 3 | 4.0 | 11.0 | 0.00 | 0.05 | 0.03 | 83 | 1012.1 |
| 20260507110004 | 55 | 3 | 4.0 | 9.0 | 0.00 | 0.05 | 0.03 | 83 | 1012.0 |
| 20260507105004 | 55 | 2 | 2.0 | 6.0 | 0.00 | 0.05 | 0.03 | 84 | 1012.1 |
| 20260507104504 | 55 | 2 | 2.0 | 7.0 | 0.00 | 0.05 | 0.03 | 84 | 1012.4 |
| 20260507104004 | 55 | 2 | 3.0 | 7.0 | 0.00 | 0.05 | 0.03 | 84 | 1012.1 |
| 20260507103503 | 55 | 2 | 4.0 | 9.0 | 0.00 | 0.05 | 0.03 | 83 | 1012.0 |
| 20260507103004 | 55 | 1 | 4.0 | 9.0 | 0.00 | 0.05 | 0.03 | 83 | 1012.0 |
| 20260507102004 | 56 | 1 | 2.0 | 6.0 | 0.00 | 0.05 | 0.03 | 85 | 1012.0 |
| 20260507101503 | 56 | 359 | 3.0 | 6.0 | 0.00 | 0.05 | 0.03 | 85 | 1011.9 |
| 20260507101003 | 56 | 358 | 3.0 | 8.0 | 0.00 | 0.05 | 0.03 | 85 | 1012.0 |
| 20260507100505 | 56 | 3 | 3.0 | 8.0 | 0.00 | 0.05 | 0.03 | 85 | 1011.8 |
| 20260507100003 | 56 | 4 | 2.0 | 8.0 | 0.00 | 0.05 | 0.03 | 85 | 1011.6 |
| 20260507095504 | 56 | 357 | 2.0 | 8.0 | 0.00 | 0.05 | 0.03 | 85 | 1011.7 |
| 20260507094503 | 56 | 359 | 3.0 | 7.0 | 0.00 | 0.05 | 0.03 | 85 | 1012.0 |
| 20260507094003 | 56 | 359 | 3.0 | 7.0 | 0.00 | 0.05 | 0.03 | 84 | 1011.9 |
| 20260507093504 | 56 | 1 | 4.0 | 8.0 | 0.00 | 0.05 | 0.03 | 84 | 1011.8 |
| 20260507093003 | 56 | 3 | 4.0 | 9.0 | 0.00 | 0.05 | 0.03 | 84 | 1011.8 |
| 20260507092504 | 56 | 2 | 5.0 | 10.0 | 0.00 | 0.05 | 0.03 | 84 | 1011.9 |
| 20260507092003 | 56 | 1 | 4.0 | 10.0 | 0.00 | 0.05 | 0.03 | 84 | 1011.7 |
| 20260507091503 | 56 | 1 | 3.0 | 10.0 | 0.00 | 0.05 | 0.03 | 84 | 1011.5 |
| 20260507091004 | 56 | 2 | 4.0 | 11.0 | 0.00 | 0.05 | 0.03 | 85 | 1011.5 |
| 20260507090503 | 56 | 4 | 4.0 | 11.0 | 0.00 | 0.05 | 0.03 | 85 | 1011.5 |
| 20260507090004 | 56 | 2 | 5.0 | 11.0 | 0.00 | 0.05 | 0.03 | 85 | 1011.5 |
| 20260507085503 | 56 | 1 | 4.0 | 11.0 | 0.00 | 0.05 | 0.03 | 85 | 1011.2 |
| 20260507085003 | 57 | 6 | 3.0 | 6.0 | 0.00 | 0.05 | 0.03 | 86 | 1011.3 |
| 20260507084503 | 57 | 4 | 3.0 | 6.0 | 0.00 | 0.05 | 0.03 | 86 | 1011.3 |
| 20260507084003 | 57 | 3 | 3.0 | 7.0 | 0.00 | 0.05 | 0.03 | 86 | 1011.2 |
| 20260507083503 | 57 | 4 | 4.0 | 10.0 | 0.00 | 0.05 | 0.03 | 86 | 1011.1 |
| 20260507083004 | 57 | 3 | 5.0 | 14.0 | 0.00 | 0.05 | 0.03 | 86 | 1011.0 |
| 20260507082503 | 57 | 3 | 7.0 | 17.0 | 0.00 | 0.05 | 0.03 | 85 | 1011.0 |
| 20260507082003 | 58 | 2 | 7.0 | 17.0 | 0.00 | 0.05 | 0.03 | 85 | 1011.2 |
| 20260507081504 | 58 | 1 | 7.0 | 19.0 | 0.00 | 0.05 | 0.03 | 86 | 1011.2 |
| 20260507080504 | 58 | 4 | 6.0 | 17.0 | 0.00 | 0.05 | 0.03 | 88 | 1010.9 |
| 20260507080003 | 59 | 4 | 5.0 | 15.0 | 0.00 | 0.05 | 0.03 | 89 | 1010.9 |
| 20260507075503 | 59 | 1 | 4.0 | 13.0 | 0.00 | 0.05 | 0.03 | 90 | 1011.0 |
| 20260507075004 | 59 | 355 | 3.0 | 13.0 | 0.00 | 0.05 | 0.03 | 90 | 1010.9 |
| 20260507074504 | 59 | 359 | 3.0 | 10.0 | 0.00 | 0.05 | 0.03 | 90 | 1010.7 |
| 20260507074003 | 59 | 5 | 4.0 | 10.0 | 0.01 | 0.05 | 0.03 | 90 | 1010.2 |
| 20260507073504 | 60 | 6 | 3.0 | 8.0 | 0.01 | 0.05 | 0.03 | 90 | 1010.0 |
| 20260507072504 | 60 | 6 | 4.0 | 9.0 | 0.02 | 0.05 | 0.03 | 89 | 1009.9 |
| 20260507072003 | 60 | 4 | 4.0 | 13.0 | 0.03 | 0.05 | 0.03 | 89 | 1009.7 |
| 20260507071503 | 60 | 3 | 5.0 | 13.0 | 0.03 | 0.05 | 0.03 | 89 | 1009.7 |
| 20260507065504 | 63 | 7 | 5.0 | 14.0 | 0.03 | 0.05 | 0.03 | 90 | 1009.5 |
| 20260507065003 | 63 | 11 | 2.0 | 8.0 | 0.03 | 0.05 | 0.03 | 91 | 1009.3 |
| 20260507063503 | 64 | 359 | 4.0 | 11.0 | 0.02 | 0.04 | 0.02 | 90 | 1009.7 |
| 20260507063003 | 64 | 357 | 3.0 | 10.0 | 0.01 | 0.03 | 0.01 | 90 | 1009.8 |
| 20260507062503 | 64 | 347 | 3.0 | 10.0 | 0.01 | 0.03 | 0.01 | 90 | 1009.8 |
| 20260507061503 | 64 | 321 | 2.0 | 8.0 | 0.00 | 0.02 | 0.00 | 90 | 1009.9 |
| 20260507061004 | 64 | 306 | 1.0 | 4.0 | 0.00 | 0.02 | 0.00 | 91 | 1009.9 |
| 20260507060504 | 64 | 311 | 1.0 | 4.0 | 0.00 | 0.02 | 0.00 | 90 | 1009.9 |
| 20260507060004 | 64 | 323 | 1.0 | 3.0 | 0.00 | 0.02 | 0.00 | 90 | 1009.9 |
| 20260507055503 | 64 | 329 | 1.0 | 3.0 | 0.00 | 0.02 | 0.00 | 90 | 1009.6 |
| 20260507053503 | 64 | 291 | 0.0 | 2.0 | 0.00 | 0.02 | 0.00 | 89 | 1009.5 |
| 20260507053004 | 64 | 305 | 0.0 | 2.0 | 0.00 | 0.02 | 0.00 | 89 | 1009.4 |
| 20260507052504 | 64 | 324 | 0.0 | 2.0 | 0.00 | 0.02 | 0.00 | 89 | 1009.5 |
| 20260507052003 | 64 | 324 | 0.0 | 2.0 | 0.00 | 0.02 | 0.00 | 89 | 1009.8 |
| 20260507051503 | 64 | 313 | 0.0 | 2.0 | 0.00 | 0.02 | 0.00 | 89 | 1010.0 |
| 20260507051003 | 64 | 327 | 0.0 | 2.0 | 0.00 | 0.02 | 0.00 | 89 | 1009.9 |
| 20260507050504 | 64 | 325 | 0.0 | 2.0 | 0.00 | 0.02 | 0.00 | 89 | 1010.0 |
| 20260507050003 | 64 | 339 | 1.0 | 4.0 | 0.00 | 0.02 | 0.00 | 89 | 1010.1 |
| 20260507045504 | 64 | 342 | 1.0 | 4.0 | 0.00 | 0.02 | 0.00 | 89 | 1010.0 |
| 20260507045004 | 64 | 346 | 1.0 | 4.0 | 0.00 | 0.02 | 0.00 | 89 | 1010.0 |
| 20260507044503 | 64 | 357 | 1.0 | 4.0 | 0.00 | 0.02 | 0.00 | 89 | 1010.0 |
| 20260507044004 | 64 | 359 | 1.0 | 4.0 | 0.00 | 0.02 | 0.00 | 90 | 1010.1 |
| 20260507043504 | 64 | 359 | 1.0 | 4.0 | 0.00 | 0.02 | 0.00 | 90 | 1010.2 |
| 20260507043003 | 63 | 357 | 1.0 | 4.0 | 0.00 | 0.02 | 0.00 | 90 | 1010.2 |
| 20260507042504 | 63 | 358 | 1.0 | 4.0 | 0.00 | 0.02 | 0.00 | 90 | 1010.2 |
| 20260507041504 | 63 | 7 | 0.0 | 3.0 | 0.00 | 0.02 | 0.00 | 90 | 1010.2 |
| 20260507041003 | 63 | 12 | 0.0 | 2.0 | 0.00 | 0.02 | 0.00 | 90 | 1010.2 |
| 20260507040503 | 63 | 340 | 0.0 | 2.0 | 0.00 | 0.02 | 0.00 | 90 | 1010.3 |
| 20260507035503 | 63 | 320 | 0.0 | 2.0 | 0.00 | 0.02 | 0.02 | 89 | 1010.2 |
| 20260507034503 | 63 | 319 | 0.0 | 2.0 | 0.00 | 0.02 | 0.02 | 88 | 1010.0 |
| 20260507033503 | 64 | 358 | 0.0 | 2.0 | 0.00 | 0.02 | 0.02 | 88 | 1009.8 |
| 20260507033003 | 64 | 1 | 1.0 | 2.0 | 0.00 | 0.02 | 0.02 | 88 | 1009.6 |
| 20260507032504 | 64 | 2 | 1.0 | 2.0 | 0.00 | 0.02 | 0.02 | 88 | 1009.6 |
| 20260507032004 | 64 | 1 | 1.0 | 3.0 | 0.00 | 0.02 | 0.02 | 88 | 1009.6 |
| 20260507031504 | 64 | 1 | 1.0 | 3.0 | 0.00 | 0.02 | 0.02 | 88 | 1009.6 |
| 20260507030004 | 64 | 2 | 1.0 | 3.0 | 0.00 | 0.02 | 0.02 | 88 | 1009.9 |
| 20260507025503 | 64 | 1 | 1.0 | 4.0 | 0.00 | 0.02 | 0.02 | 88 | 1010.0 |
| 20260507025003 | 64 | 359 | 1.0 | 4.0 | 0.00 | 0.02 | 0.02 | 88 | 1010.0 |
| 20260507024504 | 64 | 359 | 1.0 | 3.0 | 0.00 | 0.02 | 0.02 | 88 | 1009.9 |
| 20260507024003 | 64 | 1 | 1.0 | 2.0 | 0.00 | 0.02 | 0.02 | 87 | 1010.0 |
| 20260507023504 | 64 | 1 | 1.0 | 2.0 | 0.00 | 0.02 | 0.02 | 87 | 1010.1 |
| 20260507022504 | 64 | 2 | 0.0 | 2.0 | 0.00 | 0.02 | 0.02 | 87 | 1010.3 |
| 20260507022003 | 64 | 355 | 0.0 | 2.0 | 0.00 | 0.02 | 0.02 | 86 | 1010.2 |
| 20260507021503 | 64 | 1 | 0.0 | 2.0 | 0.00 | 0.02 | 0.02 | 86 | 1010.2 |
| 20260507020504 | 65 | 343 | 0.0 | 2.0 | 0.00 | 0.02 | 0.02 | 85 | 1010.2 |
| 20260507020003 | 65 | 339 | 0.0 | 2.0 | 0.00 | 0.02 | 0.02 | 85 | 1010.4 |
| 20260507015504 | 65 | 93 | 0.0 | 2.0 | 0.00 | 0.02 | 0.02 | 85 | 1010.3 |
| 20260507015003 | 65 | 95 | 0.0 | 2.0 | 0.00 | 0.02 | 0.02 | 84 | 1010.3 |
| 20260507014504 | 65 | 5 | 0.0 | 2.0 | 0.00 | 0.02 | 0.02 | 84 | 1010.7 |
| 20260507014003 | 66 | 3 | 1.0 | 2.0 | 0.00 | 0.02 | 0.02 | 84 | 1010.7 |
| 20260507013504 | 66 | 357 | 1.0 | 2.0 | 0.00 | 0.02 | 0.02 | 84 | 1010.6 |
| 20260507013003 | 66 | 342 | 0.0 | 2.0 | 0.00 | 0.02 | 0.02 | 84 | 1010.5 |
| 20260507012004 | 66 | 8 | 0.0 | 2.0 | 0.00 | 0.02 | 0.02 | 84 | 1010.3 |
| 20260507011503 | 66 | 12 | 0.0 | 2.0 | 0.00 | 0.02 | 0.02 | 84 | 1010.3 |
| 20260507010503 | 66 | 43 | 0.0 | 2.0 | 0.00 | 0.02 | 0.02 | 84 | 1010.2 |
| 20260507010003 | 66 | 34 | 0.0 | 2.0 | 0.00 | 0.02 | 0.02 | 83 | 1010.2 |
| 20260507005504 | 66 | 57 | 0.0 | 2.0 | 0.00 | 0.02 | 0.02 | 83 | 1010.1 |
| 20260507005003 | 66 | 7 | 0.0 | 1.0 | 0.00 | 0.02 | 0.02 | 82 | 1010.3 |
| 20260507004004 | 67 | 342 | 0.0 | 2.0 | 0.00 | 0.02 | 0.02 | 81 | 1010.2 |
| 20260507003503 | 67 | 330 | 0.0 | 2.0 | 0.00 | 0.02 | 0.02 | 81 | 1010.1 |
| 20260507003005 | 67 | 332 | 0.0 | 2.0 | 0.00 | 0.02 | 0.02 | 81 | 1009.9 |
| 20260507002503 | 67 | 322 | 0.0 | 3.0 | 0.00 | 0.02 | 0.02 | 80 | 1009.9 |
| 20260507001504 | 68 | 327 | 1.0 | 3.0 | 0.00 | 0.02 | 0.02 | 80 | 1009.9 |
| 20260507001004 | 68 | 321 | 1.0 | 2.0 | 0.00 | 0.02 | 0.02 | 79 | 1009.8 |
| 20260507000003 | 68 | 344 | 1.0 | 3.0 | 0.00 | 0.02 | 0.02 | 79 | 1009.7 |
| 20260506235503 | 69 | 351 | 1.0 | 3.0 | 0.00 | 0.02 | 0.02 | 78 | 1009.7 |
| 20260506235003 | 69 | 340 | 1.0 | 3.0 | 0.00 | 0.02 | 0.02 | 78 | 1009.7 |
| 20260506234004 | 69 | 352 | 1.0 | 3.0 | 0.00 | 0.02 | 0.02 | 77 | 1009.7 |
| 20260506233503 | 69 | 340 | 1.0 | 4.0 | 0.00 | 0.02 | 0.02 | 77 | 1009.6 |
| 20260506233004 | 69 | 335 | 1.0 | 4.0 | 0.00 | 0.02 | 0.02 | 76 | 1009.6 |
| 20260506232503 | 70 | 346 | 1.0 | 7.0 | 0.00 | 0.02 | 0.02 | 77 | 1009.6 |
| 20260506232003 | 70 | 336 | 2.0 | 7.0 | 0.00 | 0.02 | 0.02 | 76 | 1009.5 |
| 20260506231504 | 70 | 335 | 2.0 | 7.0 | 0.00 | 0.02 | 0.02 | 76 | 1009.5 |
| 20260506231003 | 70 | 337 | 2.0 | 6.0 | 0.00 | 0.02 | 0.02 | 76 | 1009.6 |
| 20260506230504 | 70 | 320 | 2.0 | 6.0 | 0.00 | 0.02 | 0.02 | 76 | 1009.7 |
| 20260506230004 | 70 | 309 | 2.0 | 5.0 | 0.00 | 0.02 | 0.02 | 75 | 1009.7 |
| 20260506225503 | 70 | 323 | 2.0 | 6.0 | 0.00 | 0.02 | 0.02 | 76 | 1009.7 |
| 20260506225003 | 70 | 336 | 3.0 | 8.0 | 0.00 | 0.02 | 0.02 | 75 | 1009.6 |
| 20260506224504 | 70 | 348 | 3.0 | 13.0 | 0.00 | 0.02 | 0.02 | 75 | 1009.7 |
| 20260506224003 | 70 | 329 | 4.0 | 14.0 | 0.00 | 0.02 | 0.02 | 75 | 1009.7 |
| 20260506223504 | 70 | 313 | 3.0 | 14.0 | 0.00 | 0.02 | 0.02 | 75 | 1009.7 |
| 20260506223003 | 70 | 332 | 3.0 | 8.0 | 0.00 | 0.02 | 0.02 | 75 | 1009.7 |
| 20260506222502 | 70 | 331 | 3.0 | 11.0 | 0.00 | 0.02 | 0.02 | 75 | 1009.6 |
| 20260506222002 | 70 | 317 | 3.0 | 11.0 | 0.00 | 0.02 | 0.02 | 75 | 1009.6 |